COSMOS 2251 DEB, 36430

Orbit data source: Space-Track

COSMOS 2251 DEB, 36430 is space debris in LEO originally from a launch on Wed, 16 Jun 1993 UTC launched from the Plesetsk Missile And Space Complex (PKMTR). The debris from Iridium 33, an American commercial communications satellite, has been tracked extensively since its accidental collision with the defunct Russian satellite Cosmos 2251 in 2009. This event, occurring at high speed in low Earth orbit (LEO), generated thousands of pieces of space debris, significantly increasing the risk of further collisions. The Iridium 33 debris cloud has impacted space traffic management and orbital debris mitigation strategies, making it a subject of ongoing study in space situational awareness.

Loading next visibility...
Identifier
36430, 1993-036BAD
Orbit
LEO
Country
Flag of CISCIS
Related business
Manufacturer
Unknown
Mission
Spacecraft
Bus & Motor
Unknown
Mass
Unknown
Launch date (UTC)
1993-06-16 (33 years ago)
Launch vehicle
Unknown
Launch site
Plesetsk Missile And Space Complex (PKMTR)
Object type
Payload
Rocket body
Debris
Shape & HBR
Unknown shape, 0.1 m
Radar Cross Section
Small (<0.1 m²)

Expand to show TLE details & history
Last TLE update: 4 days ago

TLE from 4 days ago
0 COSMOS 2251 DEB
1 36430U 93036BAD 26119.55473901  .00000642  00000-0  25592-3 0  9998
2 36430  74.0050 218.2972 0096784 335.5555  24.1018 14.28078739665248
Epoch: 2026-04-29T13:18Z
TLE epoch observation values (Epoch: 2026-04-29T13:18:49.450Z)
Latitude
-0.00002°
Longitude
161.07713°
Altitude
737.463 km
Speed
7.519 km/s
True Right ascension
14h 33m 11s
True Declination
0° 00' 00"
Sunlit
Object was in full shadow at epoch
Visualization orbit readout
Latitude
Unknown
Longitude
Unknown
Altitude
Unknown
Speed
Unknown
Apparent Right ascension
Unknown
Apparent Declination
Unknown
Sunlit
N/A
Visualization observer readout
Local Sidereal Time
22:41:35
Azimuth
Unknown
Elevation
Unknown
Doppler factor
Unknown
Orbital elements
Apogee altitude
865.227 km
Perigee altitude
726.363 km
Semi-major axis
7,173.932 km
Eccentricity
0.00968
Inclination
74.005°
RAAN
218.2972°
Arg. of periapsis
335.5555°
True anomaly
24.55975°
Mean anomaly
24.1018°
Eccentric anomaly
24.33026°
Mean motion
3.57197 °/min
Orbital period
100.78 mins
BSTAR
0.00025592
Loading maneuver chart data...
Computing Atmospheric mass density...
Loading historical data...
Loading historical data...
Loading historical data...
Loading historical data...
Loading historical data...
Loading historical data...
Loading historical data...

Documentation

Showing up to 5 results
|